Погода в Поронайске

Погода в Поронайске : погода сейчас, прогноз погоды и архив. Всё, что Вы хотите узнать о погоде в Поронайске!

Хотите узнать прогноз погоды в Поронайске? Тогда Вам сюда: Погода в Поронайске

Поиск расширенной информации на нашем сайте:

Другие новости

Новости СМИ2

Главная страница сайта

Новости сайта

03.07.2017

Напоминаем, что на нашем специализированном сайте Метеоцентр.Азия вы можете получить высокодетализированные автоматические прогнозы погоды по пунктам России, СНГ и мира в авиационном формате (включающие направление и скорость ветра, видимость, явления погоды, количество и форму облачности, нижнюю и верхнюю границу облачности).

Рекомендуем: Самая подробная информация услуги аренды персонала на сайте.

Погода в Поронайске - сегодня

Время (UTC), дата Ветер
(°,м/с) 
Видим.   Явления Облачность Т
(°С)
Тd
(°С)
f(%) Тe
(°С)
Pmin
(гПа)
dP
(гПа)
Po
(мм)
O2
(г/м3)
Тmin Tmax R s Состояние
почвы
15 12.04.18 020 (С) 4-6{07}  20000 м    ясно 
-5.3 -11.6 61 -9  1014.7  1.1  760  313           
18 12.04.18 020 (С) 3-6{07}  20000 м    ясно 
-6.9 -12.4 65 -10  1015.9  1.2  761  316           
21 12.04.18 320 (СЗ) 2-2{06}  20000 м    ясно 
-8.8 -13.8 67 -10  1017  1.1  762  318  -10.6      79  неравномерный
сухой снег
100% 
09 13.04.18 210 (ЮЗ) 4-5{08}  20000 м    8/0 средняя, верхняя 
[Ac lent|Ci fib]
-1.4 -5.5 74 -4  1016.4  0.4  761  309    +1.1       
12 13.04.18 270 (З) 4-6{06}  20000 м    ясно 
-2.7 -12.5 47 -6  1016.7  0.3  762  311           
15 13.04.18 270 (З) 4-5{09}  20000 м    ясно 
-3.1 -10.3 57 -6  1016.4  -0.3  761  311           
18 13.04.18 350 (С) 1-2{06}  20000 м    ясно 
-3.9 -10.6 60 -3  1016.2  -0.2  761  312           
21 13.04.18 090 (В) 2-3{04}  20000 м    ясно 
-1.6 -7 67 -3  1015.8  -0.3  761  309  -7.2      76  неравномерный
мокрый или
старый снег
100% 
09 14.04.18 230 (ЮЗ) 3-4{05}  20000 м    3/0 верхняя 
[Ci ing]
+2.2 -2 74 +1  1013.8  0.3  760  304    +3.6       
21 14.04.18 140 (ЮВ) 3-4{05}  20000 м    8/4 600 м кучево-дожд., средняя 
[Cb cap|Ac lent]
-1.8 -4.1 84 -4  1014.5  -0.2  760  309  -1.8      66  мокрый или
старый снег
50-90% 
00 15.04.18 130 (ЮВ) 2-4{05}  20000 м    10/6 330 м кучево-дожд., средняя, верхняя 
[Cb cap|Ac As|Ci fib]
-1.4 -4 82 -2  1014.2  -0.3  760  308           
09 15.04.18 180 (Ю) 2-3{05}  20000 м    1/0 средняя 
[Ac trans]
-1.6 -4.3 82 -3  1008.7  -1.3  756  307    -0.1       
18 15.04.18 150 (ЮВ) 1-3{06}  20000 м    ясно 
-3 -6.1 79 -3  1006.6  -1  754  308           
21 15.04.18 320 (СЗ) 1-2{03}  20000 м    6/0 средняя 
[Ac trans]
-3.7 -6.2 83 -3  1007.2  0.5  755  309  -3.8      65  мокрый или
старый снег
50-90% 
12 16.04.18 250 (З) 3-3{05}  20000 м    ясно 
+2.1 -6.1 55 +1  1009.3  2.5  756  303           
15 16.04.18 190 (Ю) 1-2{05}  20000 м    ясно 
+1.5 -2.9 72 +2  1008.1  -1.3  755  303           
09 17.04.18 260 (З) 4-8{09}  20000 м    1/1 600 м кучево-дожд. 
[Cb cap]
+10.6 -5.9 31 +10  1008.4  0.1  755  294    +15.3       
15 17.04.18 160 (Ю) 1-2{05}  20000 м    ясно 
+4.2 -0.3 72 +5  1008.3  -0.6  755  300           
18 17.04.18 270 (З) 6-8{14}  20000 м    ясно 
+5.9 -0.6 63 +4  1007.9  -0.4  755  298           
21 17.04.18 120 (ЮВ) 1-2{08}  10 км  дым  8/0 верхняя 
[Ci]
+0.9 -1.4 85 +2  1008.7  0.8  756  304  +0.1      45  мокрый или
старый снег
50-90% 
00 18.04.18 130 (ЮВ) 2-3{04}  20000 м  дым  10/0 верхняя 
[Ci ing]
+4.5 +0.1 73 +4  1008.5  -0.2  756  299           
09 18.04.18 030 (СВ) 1-3{08}  20000 м  дым  10/3 600 м кучево-дожд., средняя, верхняя 
[Cb cap|Ac trans|Ci ing]
+4.5 +0.7 76 +5  1008  2.1  755  299    +8.1       
21 18.04.18 210 (ЮЗ) 1-2{02}  4000 м  дымка  10/3 600 м кучево-дожд., средняя, верхняя 
[Cb cap|Ac As|Ci ing]
+2.4 +1.3 92 +3  1012.4  0.6  758  303  +1.4    0.5  38  мокрый или
старый снег
10-40% 
00 19.04.18 200 (Ю) 3-5{05}  10 км  дым  10/4 600 м кучево-дожд., средняя, верхняя 
[Cb cap|Ac As|Ci ing]
+3.4 -0.2 77 +2  1013.2  0.8  759  302           
09 19.04.18 190 (Ю) 5-7{07}  20000 м    10/8 960 м кучево-дожд., средняя, верхняя 
[Cb cap|Ac As|Ci ing]
+2.4 -0 84 1013  0.1  759  303    +3.8       
Время (UTC), дата Ветер
(°,м/с) 
Видим.   Явления Облачность Т
(°С)
Тd
(°С)
f(%) Тe
(°С)
Pmin
(гПа)
dP
(гПа)
Po
(мм)
O2
(г/м3)
Тmin Tmax R s Состояние
почвы

Для получения пояснительной информации подведите курсор к названию столбца.

ПОГОДА в Поронайске - архив

Всё, что Вы хотите узнать о погоде в Поронайске - удобно и подробно!

Выберите нужную дату (начиная с 1 января 2015* года) и нажмите кнопку "Найти".
Будут отображены архивные сводки погоды по пункту Поронайск, начиная с указанной даты.


Отображать данные в формате CSV (для использования в таблицах Excel)


Внимание! Наш архив погоды предназначен исключительно для личного некоммерческого использования в познавательных целях. Если Вам необходимы официальные справки о состоянии погоды (для производственных, юридических, коммерческих и т.п. целей), обращайтесь в органы Росгидромета.

*Примечание: данная дата относится к архиву по метеостанциям СССР (Россия, СНГ, Балтия).
Архив по метеостанциям Зарубежной Европы и Азии (кроме Китая) хранится 10 дней, по другим регионам земного шара (Китай, Африка, Америка, Австралия, Океания) - 1 день.

Поронайск - район местоположения метеостанции


Название, широта, долгота, высота метеостанции:
Поронайск 49.2°ш. 143.1°д. 8 м над ур. моря [Российская Федерация]

Дополнительная информация

В oтличие oт бoльшинства пoгoдных сайтoв мы публикуем пoдрoбную метеoинфoрмацию в детальнoм прoфессиoнальнoм фoрмате.

Характеристики температуры и влажнoсти вoздуха измеряются на высoте 2 м в тени вдали oт зданий и деревьев.
Скoрoсть ветра измеряется на высoте 10 м (на урoвне рoста челoвека скoрoсть ветра ниже в 1.5-2 раза). Если метеoстанция нахoдится в гoрoде или в лесу, тo скoрoсть ветра занижена на 2-4 м/с пo сравнению с oткрытым местoм. Скoрoсть ветра над акватoриями крупных рек и oзёр, а также на вершинах хoлмoв на 2-5 м/с выше, чем в oбычных услoвиях.
Атмoсфернoе давление в разных тoчках местнoсти мoжет значительнo oтличаться oт давления на метеoстанции, в зависимoсти oт услoвий рельефа (при пoдъёме на 10 м давление пoнижается примернo на 1 мм рт.ст.).